{"data":{"norad_id":68935,"intl_designator":"2026-098S","name":"KUIPER-00430","alt_names":[],"object_type":"PAYLOAD","status":"ACTIVE","operator":null,"country":"US","launch_date":"2026-04-30","launch_site_code":"FRGUI","launch_vehicle":null,"mission":null,"orbit_class":"UNKNOWN","rcs_meters":null,"size_class":null,"mass_kg":null,"dimensions":null,"purposes":[],"wikipedia_slug":null,"has_3d_model":false,"image_url":null,"decayed_at":null,"tle_current":{"epoch":"2026-09-19T22:42:00.987264Z","epoch_age_seconds":63385,"freshness":"FRESH","line1":"1 68935U 26098S   26262.94584476  .00001336  00000+0  20415-3 0  9998","line2":"2 68935  51.9022   1.5385 0000117 108.4655 251.6320 14.79932015 21487","mean_motion":14.79932015,"eccentricity":1.17e-5,"inclination_deg":51.9022,"raan_deg":1.5385,"arg_perigee_deg":108.4655,"mean_anomaly_deg":251.632,"bstar":0.00020415,"rev_number":2148,"period_min":97.301766932855,"perigee_km":629.45674877149,"apogee_km":629.62072838378,"semimajor_km":7007.6757385776,"source":"CELESTRAK","updated_at":"2026-09-20T09:00:24.580593Z"}}}